Previsão horária em Central Islip

Hoje, 25 Julho, Domingo

Tempo Temperatura Precipitação Vento Pressão Humidade
00:00 +25°C° 0 mm 5 m/s 760 mmHg 65%
01:00 +25°C° 0 mm 5 m/s 759 mmHg 67%
02:00 +25°C° 0 mm 5 m/s 759 mmHg 67%
03:00 +25°C° 0 mm 5 m/s 759 mmHg 67%
04:00 +25°C° 0 mm 5 m/s 758 mmHg 66%
05:00 +24°C° 0.3 mm 6 m/s 758 mmHg 72%
06:00 +23°C° 0.3 mm 6 m/s 758 mmHg 77%
07:00 +22°C° 0.3 mm 7 m/s 758 mmHg 82%
08:00 +24°C° 0.1 mm 7 m/s 758 mmHg 78%
09:00 +26°C° 0.1 mm 8 m/s 758 mmHg 75%
10:00 +27°C° 0.1 mm 8 m/s 757 mmHg 71%
11:00 +27°C° 0 mm 8 m/s 757 mmHg 71%
12:00 +27°C° 0 mm 8 m/s 757 mmHg 72%
13:00 +27°C° 0 mm 8 m/s 757 mmHg 72%
14:00 +27°C° 0.2 mm 8 m/s 756 mmHg 73%
15:00 +27°C° 0.2 mm 7 m/s 756 mmHg 74%
16:00 +27°C° 0.2 mm 7 m/s 756 mmHg 76%
17:00 +27°C° 0.2 mm 7 m/s 756 mmHg 76%
18:00 +27°C° 0.2 mm 6 m/s 755 mmHg 76%
19:00 +27°C° 0.2 mm 5 m/s 755 mmHg 76%
20:00 +27°C° 0.2 mm 4 m/s 756 mmHg 79%
21:00 +26°C° 0.2 mm 4 m/s 756 mmHg 83%
22:00 +25°C° 0.2 mm 3 m/s 756 mmHg 87%
23:00 +25°C° 0.2 mm 3 m/s 756 mmHg 88%

Amanhã, 26 Julho, Segunda-feira

Tempo Temperatura Precipitação Vento Pressão Humidade
00:00 +25°C° 0.2 mm 3 m/s 756 mmHg 89%
01:00 +25°C° 0.2 mm 2 m/s 756 mmHg 90%
02:00 +25°C° 0 mm 2 m/s 756 mmHg 90%
03:00 +24°C° 0 mm 2 m/s 756 mmHg 90%
04:00 +24°C° 0 mm 2 m/s 756 mmHg 90%
05:00 +25°C° 0 mm 2 m/s 756 mmHg 83%
06:00 +25°C° 0 mm 2 m/s 756 mmHg 76%
07:00 +26°C° 0 mm 2 m/s 757 mmHg 68%
08:00 +28°C° 0 mm 2 m/s 757 mmHg 59%
09:00 +29°C° 0 mm 2 m/s 757 mmHg 49%
10:00 +31°C° 0 mm 2 m/s 757 mmHg 40%
11:00 +32°C° 0 mm 2 m/s 757 mmHg 36%
12:00 +34°C° 0 mm 3 m/s 756 mmHg 32%
13:00 +35°C° 0 mm 3 m/s 756 mmHg 28%
14:00 +35°C° 0 mm 3 m/s 756 mmHg 29%
15:00 +35°C° 0 mm 3 m/s 756 mmHg 29%
16:00 +35°C° 0 mm 3 m/s 756 mmHg 30%
17:00 +34°C° 0 mm 3 m/s 756 mmHg 36%
18:00 +31°C° 0 mm 3 m/s 756 mmHg 42%
19:00 +30°C° 0 mm 2 m/s 756 mmHg 48%
20:00 +30°C° 0 mm 2 m/s 757 mmHg 50%
21:00 +29°C° 0 mm 2 m/s 757 mmHg 51%
22:00 +28°C° 0 mm 2 m/s 757 mmHg 53%
23:00 +27°C° 0 mm 2 m/s 757 mmHg 54%

Depois de amanhã, 27 Julho, Terça-feira

Tempo Temperatura Precipitação Vento Pressão Humidade
00:00 +27°C° 0 mm 2 m/s 758 mmHg 56%
01:00 +26°C° 0 mm 3 m/s 758 mmHg 58%
02:00 +26°C° 0 mm 3 m/s 758 mmHg 59%
03:00 +25°C° 0 mm 3 m/s 758 mmHg 60%
04:00 +24°C° 0 mm 3 m/s 758 mmHg 62%
05:00 +25°C° 0 mm 3 m/s 758 mmHg 58%
06:00 +26°C° 0 mm 3 m/s 758 mmHg 54%
07:00 +27°C° 0 mm 3 m/s 759 mmHg 50%
08:00 +29°C° 0 mm 2 m/s 759 mmHg 44%
09:00 +31°C° 0 mm 2 m/s 759 mmHg 37%
10:00 +32°C° 0 mm 2 m/s 759 mmHg 31%
11:00 +34°C° 0 mm 2 m/s 759 mmHg 30%
12:00 +35°C° 0 mm 3 m/s 758 mmHg 29%
13:00 +35°C° 0 mm 3 m/s 758 mmHg 28%
14:00 +35°C° 0 mm 4 m/s 758 mmHg 29%
15:00 +35°C° 0 mm 4 m/s 757 mmHg 30%
16:00 +35°C° 0 mm 4 m/s 757 mmHg 31%
17:00 +33°C° 0 mm 4 m/s 757 mmHg 36%
18:00 +32°C° 0 mm 4 m/s 757 mmHg 41%
19:00 +30°C° 0 mm 4 m/s 757 mmHg 46%
20:00 +28°C° 2.6 mm 4 m/s 758 mmHg 57%
21:00 +25°C° 2.6 mm 3 m/s 758 mmHg 68%
22:00 +22°C° 2.6 mm 3 m/s 759 mmHg 79%
23:00 +22°C° 0 mm 3 m/s 759 mmHg 80%

28 Julho, Quarta-feira

Tempo Temperatura Precipitação Vento Pressão Humidade
00:00 +24°C° 0 mm 3 m/s 759 mmHg 81%
01:00 +23°C° 0 mm 4 m/s 759 mmHg 82%
02:00 +22°C° 0 mm 4 m/s 759 mmHg 79%
03:00 +22°C° 0 mm 4 m/s 759 mmHg 76%
04:00 +22°C° 0 mm 4 m/s 759 mmHg 74%
05:00 +22°C° 0 mm 4 m/s 760 mmHg 68%
06:00 +22°C° 0 mm 4 m/s 760 mmHg 63%
07:00 +23°C° 0 mm 4 m/s 761 mmHg 57%
08:00 +25°C° 0 mm 4 m/s 761 mmHg 52%
09:00 +26°C° 0 mm 4 m/s 761 mmHg 47%
10:00 +27°C° 0 mm 3 m/s 761 mmHg 43%
11:00 +28°C° 0 mm 3 m/s 761 mmHg 40%
12:00 +29°C° 0 mm 2 m/s 761 mmHg 38%
13:00 +30°C° 0 mm 1 m/s 760 mmHg 35%
14:00 +29°C° 0 mm 2 m/s 760 mmHg 38%
15:00 +29°C° 0 mm 3 m/s 760 mmHg 41%
16:00 +28°C° 0 mm 3 m/s 760 mmHg 44%
17:00 +27°C° 0 mm 3 m/s 760 mmHg 50%
18:00 +26°C° 0 mm 3 m/s 760 mmHg 56%
19:00 +25°C° 0 mm 4 m/s 760 mmHg 61%
20:00 +25°C° 0 mm 3 m/s 760 mmHg 64%
21:00 +24°C° 0 mm 3 m/s 760 mmHg 67%
22:00 +24°C° 0 mm 3 m/s 760 mmHg 69%
23:00 +24°C° 0 mm 3 m/s 760 mmHg 71%

29 Julho, Quinta-feira

Tempo Temperatura Precipitação Vento Pressão Humidade
00:00 +23°C° 0 mm 4 m/s 760 mmHg 72%
01:00 +23°C° 0 mm 4 m/s 760 mmHg 73%
02:00 +23°C° 0 mm 4 m/s 759 mmHg 75%
03:00 +23°C° 0 mm 4 m/s 759 mmHg 77%
04:00 +23°C° 0 mm 4 m/s 758 mmHg 79%
05:00 +23°C° 0.4 mm 4 m/s 758 mmHg 81%
06:00 +25°C° 0.4 mm 5 m/s 758 mmHg 82%
07:00 +24°C° 0.4 mm 6 m/s 757 mmHg 83%
08:00 +24°C° 0.9 mm 6 m/s 757 mmHg 85%
09:00 +24°C° 0.9 mm 7 m/s 757 mmHg 86%
10:00 +26°C° 0.9 mm 7 m/s 756 mmHg 88%
11:00 +24°C° 1.7 mm 7 m/s 755 mmHg 89%
12:00 +24°C° 1.7 mm 7 m/s 755 mmHg 90%
13:00 +23°C° 1.7 mm 7 m/s 754 mmHg 91%
14:00 +24°C° 0.5 mm 7 m/s 754 mmHg 87%
15:00 +26°C° 0.5 mm 7 m/s 753 mmHg 83%
16:00 +27°C° 0.5 mm 7 m/s 753 mmHg 79%
17:00 +26°C° 0.6 mm 7 m/s 752 mmHg 80%
18:00 +26°C° 0.6 mm 6 m/s 752 mmHg 81%
19:00 +26°C° 0.6 mm 6 m/s 752 mmHg 82%
20:00 +26°C° 0.6 mm 6 m/s 752 mmHg 84%
21:00 +24°C° 0.6 mm 6 m/s 752 mmHg 85%
22:00 +24°C° 0.6 mm 6 m/s 752 mmHg 86%
23:00 +24°C° 0.3 mm 6 m/s 751 mmHg 88%

30 Julho, Sexta-feira

Tempo Temperatura Precipitação Vento Pressão Humidade
00:00 +23°C° 0.3 mm 5 m/s 751 mmHg 91%
01:00 +23°C° 0.3 mm 5 m/s 751 mmHg 93%
02:00 +23°C° 0 mm 5 m/s 751 mmHg 92%
03:00 +22°C° 0 mm 5 m/s 751 mmHg 91%
04:00 +22°C° 0 mm 5 m/s 751 mmHg 90%
05:00 +22°C° 0 mm 5 m/s 752 mmHg 87%
06:00 +22°C° 0 mm 5 m/s 753 mmHg 84%
07:00 +22°C° 0 mm 5 m/s 753 mmHg 82%
08:00 +23°C° 0 mm 5 m/s 754 mmHg 72%
09:00 +24°C° 0 mm 6 m/s 754 mmHg 62%
10:00 +26°C° 0 mm 6 m/s 754 mmHg 53%
11:00 +27°C° 0 mm 6 m/s 754 mmHg 47%
12:00 +28°C° 0 mm 5 m/s 754 mmHg 42%
13:00 +28°C° 0 mm 5 m/s 755 mmHg 37%
14:00 +28°C° 0 mm 5 m/s 755 mmHg 37%
15:00 +28°C° 0 mm 6 m/s 755 mmHg 37%
16:00 +28°C° 0 mm 6 m/s 755 mmHg 37%
17:00 +26°C° 0 mm 6 m/s 756 mmHg 39%
18:00 +24°C° 0 mm 6 m/s 757 mmHg 41%
19:00 +23°C° 0 mm 6 m/s 757 mmHg 43%
20:00 +22°C° 0 mm 6 m/s 758 mmHg 46%
21:00 +22°C° 0 mm 5 m/s 758 mmHg 48%
22:00 +21°C° 0 mm 5 m/s 759 mmHg 51%
23:00 +20°C° 0 mm 4 m/s 759 mmHg 53%
Mostrar mais

Necessitamos do seu Consentimento

A Meteoprog e os seus Fornecedores de Serviços podem armazenar e aceder a dados pessoais como cookies, identificadores do dispositivo ou outras tecnologias semelhantes existentes no seu dispositivo e processar estes dados para personalizar conteúdos e anúncios, assim como funcionalidades nas redes sociais e análise de tráfego.

  • Armazenar e/ou aceder a informações no seu dispositivo

    Os cookies, identificadores do dispositivo ou outras informações podem ser armazenados ou acedidos no seu dispositivo, para os fins acima indicados.

  • Anúncios e conteúdos personalizados, medição de anúncios e conteúdos, dados sobre o público-alvo e desenvolvimento de produtos

    Os anúncios e os conteúdos podem ser personalizados com base num perfil. Podem ser adicionados dados adicionais para uma maior personalização dos anúncios e dos conteúdos. A eficácia dos anúncios e dos conteúdos pode ser medida. Podem ser obtidas informações sobre o público que visualizou os anúncios e os conteúdos. Estes dados podem ser usados para desenvolver ou melhorar sistemas, softwares ou a experiência do utilizador.

Ao clicar em "Eu concordo”, permitirá o uso de cookies, identificadores do dispositivo e web beacons mencionados ou outras tecnologias semelhantes. As configurações do navegador do seu dispositivo podem ser alteradas.

Para certos fins, podem ser invocados interesses legítimos ao invés de consentimento. Pode ler mais informação sobre este assunto na nossa Política de Privacidade e Cookies.